NKS546 SEGU-KJFK

Flight info

Callsign NKS546
Flight time N/A
Altitude 36000
Route UGUPI UL780 TBG/N0459F380 UL780 ULBAS UG437 ALTIB UM779 ZEUSS/N0454F390 Y329 ZFP Y319 JAZZI DCT SAGGY DCT CHIEZ Q161 KALDA Q108 SIE CAMRN5
Aircraft A20N/M-SDE2E3FGHIRWXY/LB1

Departure

Time 2026-04-20 19:52
Airport José Joaquín de Olmedo International Airport (SEGU)

Arrival

Time N/A
Airport John F. Kennedy International Airport (KJFK)
Time Latitude Longitude Altitude Speed Heading
2026-04-20 19:19 -2.15085 -79.88452 32 ft 0 kts 299°
2026-04-20 19:39 -2.15090 -79.88443 32 ft 3 kts 301°
2026-04-20 19:40 -2.15103 -79.88425 32 ft 3 kts 311°
2026-04-20 19:40 -2.15120 -79.88409 32 ft 3 kts 330°
2026-04-20 19:40 -2.15139 -79.88403 32 ft 3 kts 16°
2026-04-20 19:40 -2.15149 -79.88407 32 ft 1 kts 30°
2026-04-20 19:45 -2.15147 -79.88406 32 ft 2 kts 30°
2026-04-20 19:45 -2.15137 -79.88393 32 ft 1 kts 89°
2026-04-20 19:46 -2.15149 -79.88380 32 ft 9 kts 148°
2026-04-20 19:46 -2.15202 -79.88328 32 ft 11 kts 127°
2026-04-20 19:46 -2.15242 -79.88260 31 ft 12 kts 119°
2026-04-20 19:46 -2.15310 -79.88227 31 ft 14 kts 202°
2026-04-20 19:47 -2.15400 -79.88278 31 ft 15 kts 210°
2026-04-20 19:47 -2.15492 -79.88331 31 ft 15 kts 211°
2026-04-20 19:47 -2.15585 -79.88385 31 ft 16 kts 209°
2026-04-20 19:47 -2.15680 -79.88440 31 ft 16 kts 210°
2026-04-20 19:48 -2.15774 -79.88494 31 ft 16 kts 210°
2026-04-20 19:48 -2.15867 -79.88548 32 ft 16 kts 210°
2026-04-20 19:48 -2.15961 -79.88603 31 ft 14 kts 211°
2026-04-20 19:48 -2.16047 -79.88654 32 ft 14 kts 209°
2026-04-20 19:49 -2.16132 -79.88702 30 ft 14 kts 209°
2026-04-20 19:49 -2.16218 -79.88750 32 ft 14 kts 209°
2026-04-20 19:49 -2.16308 -79.88801 31 ft 15 kts 210°
2026-04-20 19:49 -2.16396 -79.88853 31 ft 15 kts 210°
2026-04-20 19:50 -2.16483 -79.88903 31 ft 14 kts 210°
2026-04-20 19:50 -2.16567 -79.88952 31 ft 14 kts 210°
2026-04-20 19:50 -2.16652 -79.89000 31 ft 14 kts 208°
2026-04-20 19:50 -2.16734 -79.89043 32 ft 13 kts 202°
2026-04-20 19:51 -2.16797 -79.89008 31 ft 12 kts 103°
2026-04-20 19:51 -2.16771 -79.88959 31 ft 0 kts 32°
2026-04-20 19:51 -2.16768 -79.88958 31 ft 7 kts 32°
2026-04-20 19:51 -2.16473 -79.88785 32 ft 94 kts 29°
2026-04-20 19:52 -2.15625 -79.88300 51 ft 180 kts 30°
2026-04-20 19:52 -2.14522 -79.87655 999 ft 185 kts 30°
2026-04-20 19:52 -2.13421 -79.87003 2204 ft 187 kts 32°
2026-04-20 19:52 -2.12172 -79.86403 2925 ft 213 kts 11°
2026-04-20 19:53 -2.10632 -79.86358 3670 ft 231 kts 358°
2026-04-20 19:53 -2.08923 -79.86442 3984 ft 261 kts 356°
2026-04-20 19:53 -2.07013 -79.86519 4314 ft 288 kts 357°
2026-04-20 19:53 -2.04958 -79.86562 4889 ft 301 kts 359°
2026-04-20 19:54 -2.02852 -79.86568 5609 ft 306 kts 359°
2026-04-20 19:54 -2.00695 -79.86559 6361 ft 310 kts 359°
2026-04-20 19:54 -1.98525 -79.86545 7131 ft 314 kts 360°
2026-04-20 19:54 -1.96334 -79.86527 7882 ft 318 kts 360°
2026-04-20 19:55 -1.94863 -79.86515 8375 ft 320 kts 360°
2026-04-20 19:55 -1.92616 -79.86494 9123 ft 324 kts 360°
2026-04-20 19:55 -1.90345 -79.86473 9852 ft 327 kts 360°
2026-04-20 19:55 -1.88057 -79.86452 10580 ft 330 kts
2026-04-20 19:56 -1.85728 -79.86430 11151 ft 340 kts 360°
2026-04-20 19:56 -1.83340 -79.86409 11743 ft 347 kts 360°
2026-04-20 19:56 -1.80919 -79.86386 12434 ft 350 kts 360°
2026-04-20 19:56 -1.78459 -79.86363 13159 ft 354 kts 360°
2026-04-20 19:57 -1.75983 -79.86339 13876 ft 357 kts 360°
2026-04-20 19:57 -1.73486 -79.86315 14588 ft 361 kts 359°
2026-04-20 19:57 -1.70955 -79.86291 15293 ft 365 kts 359°
2026-04-20 19:57 -1.68404 -79.86266 16009 ft 368 kts 359°
2026-04-20 19:58 -1.65835 -79.86242 16690 ft 372 kts 359°
2026-04-20 19:58 -1.63229 -79.86218 17348 ft 376 kts 359°
2026-04-20 19:58 -1.60607 -79.86193 17988 ft 379 kts 359°
2026-04-20 19:58 -1.57959 -79.86168 18590 ft 383 kts 359°
2026-04-20 19:59 -1.55284 -79.86143 19156 ft 386 kts 359°
2026-04-20 19:59 -1.52575 -79.86117 19696 ft 390 kts 359°
2026-04-20 19:59 -1.49836 -79.86092 20217 ft 394 kts 359°
2026-04-20 19:59 -1.47087 -79.86066 20723 ft 398 kts 359°
2026-04-20 20:00 -1.44301 -79.86041 21236 ft 401 kts 359°
2026-04-20 20:00 -1.41495 -79.86015 21728 ft 405 kts 359°
2026-04-20 20:00 -1.38664 -79.85988 22218 ft 409 kts 359°
2026-04-20 20:00 -1.35807 -79.85961 22692 ft 412 kts 359°
2026-04-20 20:01 -1.32929 -79.85933 23152 ft 415 kts 359°
2026-04-20 20:01 -1.30025 -79.85905 23593 ft 419 kts 359°
2026-04-20 20:01 -1.27095 -79.85877 24034 ft 422 kts 359°
2026-04-20 20:01 -1.24146 -79.85848 24474 ft 426 kts 360°
2026-04-20 20:02 -1.21174 -79.85820 24902 ft 429 kts 360°
2026-04-20 20:02 -1.18168 -79.85791 25321 ft 433 kts 360°
2026-04-20 20:02 -1.15143 -79.85763 25749 ft 436 kts 360°
2026-04-20 20:02 -1.12097 -79.85734 26164 ft 439 kts 360°
2026-04-20 20:03 -1.09034 -79.85704 26564 ft 442 kts
2026-04-20 20:03 -1.05947 -79.85675 26969 ft 445 kts
2026-04-20 20:03 -1.02847 -79.85646 27344 ft 448 kts
2026-04-20 20:03 -0.99742 -79.85617 27714 ft 451 kts
2026-04-20 20:04 -0.96598 -79.85589 28074 ft 454 kts
2026-04-20 20:04 -0.93429 -79.85560 28411 ft 457 kts
2026-04-20 20:04 -0.90245 -79.85532 28761 ft 459 kts
2026-04-20 20:04 -0.87044 -79.85501 29087 ft 462 kts
2026-04-20 20:05 -0.83818 -79.85468 29434 ft 464 kts
2026-04-20 20:05 -0.80595 -79.85437 29744 ft 466 kts
2026-04-20 20:05 -0.77330 -79.85407 30078 ft 469 kts
2026-04-20 20:05 -0.74055 -79.85377 30421 ft 470 kts
2026-04-20 20:06 -0.70774 -79.85344 30715 ft 472 kts
2026-04-20 20:06 -0.67486 -79.85315 31108 ft 472 kts
2026-04-20 20:06 -0.64214 -79.85284 31522 ft 471 kts
2026-04-20 20:06 -0.60933 -79.85253 31959 ft 470 kts
2026-04-20 20:07 -0.57668 -79.85221 32374 ft 469 kts
2026-04-20 20:07 -0.54406 -79.85190 32765 ft 468 kts
2026-04-20 20:07 -0.51149 -79.85159 33125 ft 468 kts
2026-04-20 20:07 -0.47933 -79.85128 33477 ft 467 kts
2026-04-20 20:08 -0.44636 -79.85096 33843 ft 467 kts
2026-04-20 20:08 -0.41430 -79.85066 34185 ft 466 kts
2026-04-20 20:08 -0.38191 -79.85035 34512 ft 466 kts
2026-04-20 20:08 -0.34941 -79.85004 34857 ft 465 kts
2026-04-20 20:09 -0.31710 -79.84974 35193 ft 464 kts
2026-04-20 20:09 -0.28479 -79.84944 35544 ft 463 kts
2026-04-20 20:09 -0.25266 -79.84914 35886 ft 462 kts
2026-04-20 20:09 -0.22048 -79.84883 36207 ft 460 kts
2026-04-20 20:10 -0.18834 -79.84853 36497 ft 460 kts
2026-04-20 20:10 -0.15643 -79.84824 36770 ft 460 kts
2026-04-20 20:10 -0.12444 -79.84793 37077 ft 458 kts
2026-04-20 20:10 -0.09266 -79.84763 37416 ft 455 kts
2026-04-20 20:11 -0.06092 -79.84734 37759 ft 453 kts
2026-04-20 20:11 -0.02992 -79.84705 37988 ft 453 kts
2026-04-20 20:11 0.00182 -79.84673 38007 ft 458 kts
2026-04-20 20:12 0.06642 -79.84607 37965 ft 468 kts
2026-04-20 20:12 0.13165 -79.84546 37955 ft 468 kts
2026-04-20 20:13 0.22912 -79.84458 37955 ft 468 kts
2026-04-20 20:13 0.29437 -79.84397 37944 ft 468 kts
2026-04-20 20:14 0.35943 -79.84334 37936 ft 468 kts
2026-04-20 20:14 0.42454 -79.84271 37928 ft 468 kts
2026-04-20 20:15 0.48932 -79.84209 37925 ft 468 kts
2026-04-20 20:15 0.55486 -79.84147 37916 ft 468 kts
2026-04-20 20:16 0.62008 -79.84086 37907 ft 468 kts
2026-04-20 20:16 0.68541 -79.84024 37907 ft 469 kts
2026-04-20 20:17 0.75061 -79.83963 37897 ft 469 kts
2026-04-20 20:17 0.81553 -79.83903 37897 ft 469 kts
2026-04-20 20:18 0.88089 -79.83841 37887 ft 469 kts
2026-04-20 20:18 0.94618 -79.83779 37886 ft 470 kts
2026-04-20 20:19 1.01163 -79.83715 37886 ft 470 kts
2026-04-20 20:19 1.07700 -79.83655 37889 ft 470 kts
2026-04-20 20:20 1.14241 -79.83593 37887 ft 470 kts
2026-04-20 20:20 1.20786 -79.83532 37889 ft 470 kts
2026-04-20 20:21 1.27328 -79.83470 37891 ft 471 kts
2026-04-20 20:21 1.33888 -79.83408 37887 ft 471 kts
2026-04-20 20:22 1.40401 -79.83346 37883 ft 471 kts
2026-04-20 20:22 1.46948 -79.83157 37877 ft 470 kts
2026-04-20 20:23 1.53481 -79.82847 37884 ft 470 kts
2026-04-20 20:23 1.60017 -79.82529 37878 ft 471 kts
2026-04-20 20:24 1.66578 -79.82228 37878 ft 470 kts
2026-04-20 20:24 1.73130 -79.81936 37876 ft 470 kts
2026-04-20 20:25 1.79669 -79.81648 37883 ft 471 kts
2026-04-20 20:25 1.86171 -79.81360 37876 ft 471 kts
2026-04-20 20:26 1.92732 -79.81068 37877 ft 471 kts
2026-04-20 20:26 1.99276 -79.80778 37877 ft 471 kts
2026-04-20 20:27 2.05838 -79.80487 37877 ft 471 kts
2026-04-20 20:27 2.12395 -79.80196 37877 ft 471 kts
2026-04-20 20:28 2.18943 -79.79904 37877 ft 471 kts
2026-04-20 20:28 2.25496 -79.79613 37877 ft 471 kts
2026-04-20 20:29 2.32064 -79.79321 37876 ft 471 kts
2026-04-20 20:29 2.38608 -79.79032 37880 ft 471 kts
2026-04-20 20:30 2.45162 -79.78741 37877 ft 471 kts
2026-04-20 20:30 2.51709 -79.78450 37882 ft 471 kts
2026-04-20 20:31 2.58220 -79.78160 37877 ft 471 kts
2026-04-20 20:31 2.64768 -79.77870 37877 ft 472 kts
2026-04-20 20:32 2.71326 -79.77578 37877 ft 472 kts
2026-04-20 20:32 2.77894 -79.77286 37877 ft 472 kts
2026-04-20 20:33 2.84458 -79.76994 37877 ft 472 kts
2026-04-20 20:33 2.91024 -79.76702 37879 ft 472 kts
2026-04-20 20:34 2.97612 -79.76410 37881 ft 473 kts
2026-04-20 20:34 3.04137 -79.76120 37877 ft 473 kts
2026-04-20 20:35 3.10718 -79.75827 37877 ft 472 kts
2026-04-20 20:35 3.17280 -79.75535 37881 ft 473 kts
2026-04-20 20:36 3.23857 -79.75243 37883 ft 473 kts
2026-04-20 20:36 3.29342 -79.74999 37879 ft 473 kts
2026-04-20 20:37 3.35924 -79.74706 37877 ft 474 kts
2026-04-20 20:37 3.42495 -79.74412 37876 ft 474 kts
2026-04-20 20:38 3.49094 -79.74119 37871 ft 474 kts
2026-04-20 20:38 3.55675 -79.73826 37871 ft 474 kts
2026-04-20 20:39 3.62267 -79.73533 37868 ft 474 kts
2026-04-20 20:39 3.68818 -79.73240 37864 ft 474 kts
2026-04-20 20:40 3.75459 -79.72944 37870 ft 474 kts
2026-04-20 20:40 3.82050 -79.72652 37869 ft 474 kts
2026-04-20 20:41 3.88595 -79.72362 37871 ft 474 kts
2026-04-20 20:41 3.95179 -79.72067 37877 ft 474 kts
2026-04-20 20:42 4.01772 -79.71774 37867 ft 474 kts
2026-04-20 20:42 4.08362 -79.71480 37869 ft 474 kts
2026-04-20 20:43 4.14954 -79.71186 37871 ft 474 kts
2026-04-20 20:43 4.21556 -79.70892 37871 ft 474 kts
2026-04-20 20:44 4.28149 -79.70598 37871 ft 474 kts
2026-04-20 20:44 4.34738 -79.70303 37871 ft 474 kts
2026-04-20 20:45 4.41328 -79.70010 37871 ft 474 kts
2026-04-20 20:45 4.47911 -79.69717 37871 ft 473 kts
2026-04-20 20:46 4.54489 -79.69423 37866 ft 473 kts
2026-04-20 20:46 4.61027 -79.69132 37871 ft 473 kts
2026-04-20 20:47 4.67617 -79.68838 37862 ft 473 kts
2026-04-20 20:47 4.74200 -79.68544 37858 ft 473 kts
2026-04-20 20:48 4.80768 -79.68251 37862 ft 472 kts
2026-04-20 20:48 4.87326 -79.67958 37862 ft 472 kts
2026-04-20 20:49 4.93890 -79.67666 37861 ft 472 kts
2026-04-20 20:49 5.00458 -79.67372 37861 ft 472 kts
2026-04-20 20:50 5.06999 -79.67078 37860 ft 471 kts
2026-04-20 20:50 5.13564 -79.66786 37860 ft 471 kts
2026-04-20 20:51 5.20098 -79.66527 37857 ft 471 kts
2026-04-20 20:51 5.26608 -79.66345 37862 ft 471 kts
2026-04-20 20:52 5.33165 -79.66173 37858 ft 470 kts
2026-04-20 20:52 5.39707 -79.65995 37860 ft 470 kts
2026-04-20 20:53 5.46245 -79.65813 37861 ft 470 kts
2026-04-20 20:53 5.52785 -79.65628 37858 ft 470 kts
2026-04-20 20:54 5.59316 -79.65443 37861 ft 470 kts
2026-04-20 20:54 5.65818 -79.65261 37859 ft 470 kts
2026-04-20 20:55 5.72337 -79.65076 37870 ft 469 kts
2026-04-20 20:55 5.78868 -79.64891 37860 ft 469 kts
2026-04-20 20:56 5.85387 -79.64707 37858 ft 469 kts
2026-04-20 20:56 5.91924 -79.64523 37856 ft 469 kts
2026-04-20 20:57 5.98445 -79.64339 37859 ft 469 kts
2026-04-20 20:57 6.04962 -79.64154 37857 ft 469 kts
2026-04-20 20:58 6.11500 -79.63969 37861 ft 469 kts
2026-04-20 20:58 6.18023 -79.63784 37857 ft 469 kts
2026-04-20 20:59 6.24505 -79.63600 37864 ft 469 kts
2026-04-20 20:59 6.31037 -79.63417 37871 ft 469 kts
2026-04-20 21:00 6.37561 -79.63234 37874 ft 469 kts
2026-04-20 21:00 6.44080 -79.63049 37883 ft 468 kts
2026-04-20 21:01 6.50589 -79.62866 37877 ft 468 kts
2026-04-20 21:01 6.57109 -79.62680 37884 ft 468 kts
2026-04-20 21:02 6.63633 -79.62495 37876 ft 468 kts
2026-04-20 21:02 6.70152 -79.62310 37875 ft 468 kts
2026-04-20 21:03 6.76666 -79.62126 37883 ft 468 kts
2026-04-20 21:03 6.83138 -79.61942 37875 ft 468 kts
2026-04-20 21:04 6.89660 -79.61756 37883 ft 468 kts
2026-04-20 21:04 6.96183 -79.61572 37877 ft 469 kts
2026-04-20 21:05 7.02709 -79.61388 37877 ft 468 kts
2026-04-20 21:05 7.09220 -79.61203 37876 ft 468 kts
2026-04-20 21:06 7.15744 -79.61018 37879 ft 469 kts
2026-04-20 21:06 7.22273 -79.60833 37879 ft 469 kts
2026-04-20 21:07 7.28762 -79.60647 37879 ft 469 kts
2026-04-20 21:07 7.35288 -79.60456 37875 ft 469 kts
2026-04-20 21:08 7.41804 -79.60263 37884 ft 469 kts
2026-04-20 21:08 7.48330 -79.60069 37878 ft 469 kts
2026-04-20 21:09 7.54854 -79.59877 37882 ft 469 kts
2026-04-20 21:09 7.61373 -79.59683 37885 ft 468 kts
2026-04-20 21:10 7.67893 -79.59490 37886 ft 468 kts
2026-04-20 21:10 7.74373 -79.59299 37887 ft 468 kts
2026-04-20 21:11 7.80885 -79.59107 37887 ft 468 kts
2026-04-20 21:11 7.87400 -79.58914 37886 ft 468 kts
2026-04-20 21:12 7.93924 -79.58720 37893 ft 468 kts
2026-04-20 21:12 8.00440 -79.58528 37865 ft 470 kts
2026-04-20 21:13 8.06968 -79.58336 37858 ft 473 kts
2026-04-20 21:13 8.13564 -79.58139 37865 ft 473 kts
2026-04-20 21:14 8.20140 -79.57944 37872 ft 473 kts
2026-04-20 21:14 8.26732 -79.57749 37872 ft 473 kts
2026-04-20 21:15 8.33316 -79.57553 37868 ft 473 kts
2026-04-20 21:15 8.39892 -79.57357 37871 ft 472 kts
2026-04-20 21:16 8.46467 -79.57161 37863 ft 472 kts
2026-04-20 21:16 8.53039 -79.56967 37871 ft 472 kts
2026-04-20 21:17 8.59558 -79.56773 37868 ft 472 kts
2026-04-20 21:17 8.66120 -79.56578 37867 ft 471 kts
2026-04-20 21:18 8.72682 -79.56383 37872 ft 471 kts
2026-04-20 21:18 8.79249 -79.56187 37873 ft 471 kts
2026-04-20 21:19 8.85788 -79.55964 37857 ft 470 kts
2026-04-20 21:20 8.95600 -79.55611 37868 ft 470 kts
2026-04-20 21:20 9.01043 -79.55418 37876 ft 469 kts
2026-04-20 21:21 9.08629 -79.55151 37881 ft 469 kts
2026-04-20 21:21 9.15157 -79.54921 37876 ft 469 kts
2026-04-20 21:22 9.21665 -79.54691 37877 ft 468 kts
2026-04-20 21:22 9.28177 -79.54462 37876 ft 468 kts
2026-04-20 21:23 9.34700 -79.54234 37880 ft 468 kts
2026-04-20 21:23 9.41192 -79.54005 37867 ft 467 kts
2026-04-20 21:24 9.47702 -79.53775 37866 ft 467 kts
2026-04-20 21:24 9.53101 -79.53584 37880 ft 467 kts
2026-04-20 21:25 9.60652 -79.53315 37870 ft 467 kts
2026-04-20 21:25 9.66091 -79.53123 37866 ft 467 kts
2026-04-20 21:26 9.72591 -79.52895 37868 ft 467 kts
2026-04-20 21:26 9.79079 -79.52664 37865 ft 466 kts
2026-04-20 21:27 9.85559 -79.52437 37866 ft 466 kts
2026-04-20 21:27 9.92015 -79.52210 37871 ft 466 kts
2026-04-20 21:28 9.98508 -79.51979 37876 ft 466 kts
2026-04-20 21:28 10.04978 -79.51749 37879 ft 465 kts
2026-04-20 21:29 10.11453 -79.51521 37890 ft 465 kts
2026-04-20 21:29 10.17929 -79.51292 37886 ft 465 kts
2026-04-20 21:30 10.24407 -79.51065 37892 ft 466 kts
2026-04-20 21:30 10.30845 -79.50836 37889 ft 466 kts
2026-04-20 21:31 10.37333 -79.50605 37890 ft 466 kts
2026-04-20 21:31 10.43810 -79.50374 37886 ft 466 kts
2026-04-20 21:32 10.50303 -79.50143 37887 ft 466 kts
2026-04-20 21:32 10.56734 -79.49910 37892 ft 466 kts
2026-04-20 21:33 10.63213 -79.49664 37886 ft 466 kts
2026-04-20 21:33 10.69697 -79.49416 37886 ft 466 kts
2026-04-20 21:34 10.76177 -79.49170 37886 ft 466 kts
2026-04-20 21:34 10.82659 -79.48923 37896 ft 466 kts
2026-04-20 21:35 10.89139 -79.48674 37896 ft 466 kts
2026-04-20 21:35 10.95618 -79.48429 37900 ft 466 kts
2026-04-20 21:36 11.02101 -79.48185 37899 ft 466 kts
2026-04-20 21:36 11.08588 -79.47939 37896 ft 467 kts
2026-04-20 21:37 11.15078 -79.47692 37896 ft 467 kts
2026-04-20 21:37 11.21519 -79.47446 37896 ft 467 kts
2026-04-20 21:38 11.28018 -79.47198 37896 ft 467 kts
2026-04-20 21:38 11.34514 -79.46951 37896 ft 467 kts
2026-04-20 21:39 11.41009 -79.46704 37898 ft 467 kts
2026-04-20 21:39 11.47500 -79.46457 37896 ft 467 kts
2026-04-20 21:40 11.54002 -79.46209 37895 ft 466 kts
2026-04-20 21:40 11.60487 -79.45963 37900 ft 466 kts
2026-04-20 21:41 11.66925 -79.45716 37906 ft 466 kts
2026-04-20 21:41 11.73444 -79.45466 37907 ft 466 kts
2026-04-20 21:42 11.79888 -79.45220 37906 ft 466 kts
2026-04-20 21:42 11.86366 -79.44972 37914 ft 466 kts
2026-04-20 21:43 11.92837 -79.44725 37916 ft 466 kts
2026-04-20 21:43 11.99318 -79.44478 37915 ft 466 kts
2026-04-20 21:44 12.05795 -79.44232 37915 ft 465 kts
2026-04-20 21:44 12.12260 -79.43984 37916 ft 465 kts
2026-04-20 21:45 12.18744 -79.43735 37915 ft 465 kts
2026-04-20 21:45 12.25206 -79.43488 37916 ft 465 kts
2026-04-20 21:46 12.31683 -79.43239 37915 ft 465 kts
2026-04-20 21:46 12.38156 -79.42990 37915 ft 465 kts
2026-04-20 21:47 12.44637 -79.42741 37916 ft 465 kts
2026-04-20 21:47 12.51082 -79.42494 37924 ft 464 kts
2026-04-20 21:48 12.57548 -79.42246 37926 ft 464 kts
2026-04-20 21:48 12.63958 -79.41998 37933 ft 464 kts
2026-04-20 21:49 12.70410 -79.41750 37935 ft 464 kts
2026-04-20 21:49 12.76869 -79.41502 37932 ft 464 kts
2026-04-20 21:50 12.83316 -79.41254 37935 ft 463 kts
2026-04-20 21:50 12.89761 -79.41006 37935 ft 463 kts
2026-04-20 21:51 12.96200 -79.40758 37935 ft 462 kts
2026-04-20 21:51 13.02627 -79.40509 37935 ft 462 kts
2026-04-20 21:52 13.09058 -79.40261 37935 ft 462 kts
2026-04-20 21:52 13.15481 -79.40013 37935 ft 461 kts
2026-04-20 21:53 13.21899 -79.39765 37930 ft 461 kts
2026-04-20 21:53 13.28305 -79.39518 37935 ft 461 kts
2026-04-20 21:54 13.34705 -79.39271 37932 ft 460 kts
2026-04-20 21:54 13.41103 -79.39024 37935 ft 460 kts
2026-04-20 21:55 13.47497 -79.38776 37935 ft 460 kts
2026-04-20 21:55 13.53852 -79.38529 37935 ft 459 kts
2026-04-20 21:56 13.60240 -79.38281 37935 ft 459 kts
2026-04-20 21:56 13.66624 -79.38034 37935 ft 459 kts
2026-04-20 21:57 13.73007 -79.37787 37935 ft 459 kts
2026-04-20 21:57 13.79397 -79.37539 37933 ft 459 kts
2026-04-20 21:58 13.85769 -79.37292 37935 ft 458 kts
2026-04-20 21:58 13.92155 -79.37044 37933 ft 458 kts
2026-04-20 21:59 13.98532 -79.36797 37933 ft 458 kts
2026-04-20 21:59 14.04865 -79.36550 37934 ft 458 kts
2026-04-20 22:00 14.11232 -79.36303 37935 ft 457 kts
2026-04-20 22:00 14.17578 -79.36055 37943 ft 457 kts
2026-04-20 22:01 14.23940 -79.35806 37949 ft 456 kts
2026-04-20 22:01 14.30295 -79.35559 37947 ft 457 kts
2026-04-20 22:02 14.36651 -79.35312 37943 ft 457 kts
2026-04-20 22:02 14.43014 -79.35064 37940 ft 457 kts
2026-04-20 22:03 14.49368 -79.34815 37956 ft 457 kts
2026-04-20 22:03 14.55718 -79.34568 37951 ft 457 kts
2026-04-20 22:04 14.62073 -79.34320 37956 ft 457 kts
2026-04-20 22:04 14.68424 -79.34071 37951 ft 457 kts
2026-04-20 22:05 14.74740 -79.33824 37956 ft 456 kts
2026-04-20 22:05 14.81083 -79.33574 37952 ft 456 kts
2026-04-20 22:06 14.87442 -79.33325 37956 ft 456 kts
2026-04-20 22:06 14.93785 -79.33077 37956 ft 456 kts
2026-04-20 22:07 15.00138 -79.32829 37949 ft 456 kts
2026-04-20 22:07 15.06480 -79.32609 37949 ft 456 kts
2026-04-20 22:08 15.12830 -79.32402 37964 ft 456 kts
2026-04-20 22:08 15.19144 -79.32196 37966 ft 456 kts
2026-04-20 22:09 15.25484 -79.31988 37966 ft 456 kts
2026-04-20 22:09 15.31826 -79.31778 37956 ft 456 kts
2026-04-20 22:10 15.38173 -79.31566 37966 ft 456 kts
2026-04-20 22:10 15.44509 -79.31355 37966 ft 456 kts
2026-04-20 22:11 15.49794 -79.31181 37967 ft 456 kts
2026-04-20 22:11 15.56146 -79.30970 37958 ft 456 kts
2026-04-20 22:12 15.62459 -79.30759 37963 ft 456 kts
2026-04-20 22:12 15.68803 -79.30548 37970 ft 456 kts
2026-04-20 22:13 15.75136 -79.30336 37963 ft 456 kts
2026-04-20 22:13 15.81481 -79.30124 37973 ft 456 kts
2026-04-20 22:14 15.87832 -79.29913 37973 ft 456 kts
2026-04-20 22:14 15.94165 -79.29701 37961 ft 456 kts
2026-04-20 22:15 16.00475 -79.29489 37963 ft 456 kts
2026-04-20 22:15 16.06842 -79.29277 37977 ft 455 kts 360°
2026-04-20 22:16 16.13135 -79.29068 37971 ft 454 kts 360°
2026-04-20 22:16 16.19455 -79.28855 37981 ft 455 kts 360°
2026-04-20 22:17 16.25788 -79.28643 37981 ft 455 kts 360°
2026-04-20 22:17 16.32120 -79.28430 37980 ft 455 kts 360°
2026-04-20 22:18 16.38451 -79.28218 37981 ft 455 kts 359°
2026-04-20 22:18 16.44768 -79.28004 37980 ft 454 kts 359°
2026-04-20 22:19 16.51095 -79.27791 37981 ft 454 kts 359°
2026-04-20 22:19 16.57409 -79.27579 37980 ft 454 kts 359°
2026-04-20 22:20 16.63681 -79.27368 37981 ft 454 kts 359°
2026-04-20 22:20 16.69984 -79.27156 37981 ft 453 kts 359°
2026-04-20 22:21 16.76297 -79.26944 37990 ft 453 kts 359°
2026-04-20 22:21 16.82613 -79.26732 37990 ft 453 kts 359°
2026-04-20 22:22 16.88919 -79.26519 37990 ft 453 kts 359°
2026-04-20 22:22 16.95230 -79.26306 37989 ft 453 kts 359°
2026-04-20 22:23 17.01485 -79.26094 37989 ft 452 kts 359°
2026-04-20 22:23 17.07787 -79.25883 37988 ft 452 kts 359°
2026-04-20 22:24 17.14080 -79.25669 37989 ft 452 kts 359°
2026-04-20 22:24 17.20368 -79.25454 37990 ft 452 kts 359°
2026-04-20 22:25 17.26657 -79.25241 37989 ft 452 kts 359°
2026-04-20 22:25 17.32948 -79.25028 37990 ft 452 kts 359°
2026-04-20 22:26 17.39225 -79.24814 37989 ft 452 kts 359°
2026-04-20 22:26 17.45481 -79.24604 37992 ft 452 kts 359°
2026-04-20 22:27 17.54898 -79.24284 37999 ft 451 kts 359°
2026-04-20 22:27 17.61175 -79.24069 37999 ft 451 kts 359°
2026-04-20 22:28 17.67452 -79.23856 37999 ft 451 kts 359°
2026-04-20 22:28 17.73722 -79.23642 38000 ft 451 kts 358°
2026-04-20 22:29 17.80004 -79.23429 37999 ft 451 kts 358°
2026-04-20 22:29 17.86290 -79.23215 37999 ft 451 kts 358°
2026-04-20 22:30 17.92519 -79.23002 37999 ft 451 kts 359°
2026-04-20 22:30 17.98798 -79.22787 37999 ft 451 kts 358°
2026-04-20 22:31 18.05067 -79.22574 37999 ft 450 kts 358°
2026-04-20 22:31 18.11325 -79.22360 37999 ft 449 kts 358°
2026-04-20 22:32 18.17575 -79.22146 37999 ft 449 kts 358°
2026-04-20 22:32 18.23787 -79.21933 37999 ft 449 kts 358°
2026-04-20 22:33 18.30066 -79.21718 37999 ft 449 kts 358°
2026-04-20 22:33 18.36308 -79.21504 37999 ft 449 kts 358°
2026-04-20 22:34 18.42516 -79.21290 37999 ft 449 kts 358°
2026-04-20 22:34 18.48754 -79.21076 37999 ft 449 kts 358°
2026-04-20 22:35 18.55009 -79.20861 38005 ft 448 kts 358°
2026-04-20 22:35 18.61240 -79.20649 38009 ft 448 kts 358°
2026-04-20 22:36 18.67476 -79.20433 38008 ft 448 kts 358°
2026-04-20 22:36 18.73724 -79.20218 38008 ft 448 kts 357°
2026-04-20 22:37 18.79914 -79.20004 38009 ft 448 kts 357°
2026-04-20 22:37 18.86151 -79.19790 38008 ft 448 kts 357°
2026-04-20 22:38 18.92379 -79.19574 38008 ft 448 kts 357°
2026-04-20 22:38 18.98612 -79.19359 38008 ft 447 kts 357°
2026-04-20 22:39 19.04831 -79.19145 38008 ft 447 kts 357°
2026-04-20 22:39 19.11054 -79.18928 38008 ft 447 kts 357°
2026-04-20 22:40 19.17264 -79.18713 38008 ft 447 kts 357°
2026-04-20 22:40 19.23482 -79.18499 38017 ft 447 kts 357°
2026-04-20 22:41 19.29676 -79.18285 38017 ft 447 kts 357°
2026-04-20 22:41 19.35885 -79.18069 38017 ft 446 kts 357°
2026-04-20 22:42 19.42101 -79.17852 38017 ft 446 kts 356°
2026-04-20 22:42 19.48304 -79.17637 38017 ft 446 kts 356°
2026-04-20 22:43 19.54523 -79.17421 38017 ft 447 kts 356°
2026-04-20 22:43 19.60741 -79.17205 38017 ft 446 kts 356°
2026-04-20 22:44 19.66912 -79.16990 38017 ft 446 kts 356°
2026-04-20 22:44 19.73120 -79.16773 38017 ft 446 kts 356°
2026-04-20 22:45 19.79339 -79.16556 38017 ft 446 kts 356°
2026-04-20 22:45 19.85542 -79.16339 38020 ft 445 kts 356°
2026-04-20 22:46 19.91737 -79.16123 38017 ft 445 kts 356°
2026-04-20 22:46 19.97929 -79.15907 38017 ft 445 kts 356°
2026-04-20 22:47 20.04121 -79.15725 38017 ft 444 kts 355°
2026-04-20 22:47 20.10259 -79.15592 38017 ft 443 kts 355°
2026-04-20 22:48 20.16426 -79.15466 38017 ft 443 kts 355°
2026-04-20 22:48 20.22602 -79.15334 38017 ft 443 kts 355°
2026-04-20 22:49 20.28762 -79.15198 38017 ft 443 kts 355°
2026-04-20 22:49 20.34933 -79.15062 38017 ft 444 kts 355°
2026-04-20 22:50 20.41108 -79.14926 38017 ft 444 kts 355°
2026-04-20 22:50 20.47283 -79.14789 38017 ft 444 kts 355°
2026-04-20 22:51 20.53450 -79.14654 38017 ft 443 kts 355°
2026-04-20 22:51 20.59627 -79.14517 38017 ft 443 kts 355°
2026-04-20 22:52 20.65786 -79.14378 38026 ft 442 kts 355°
2026-04-20 22:52 20.71944 -79.14240 38026 ft 442 kts 355°
2026-04-20 22:53 20.78061 -79.14104 38028 ft 442 kts 355°
2026-04-20 22:53 20.84213 -79.13965 38026 ft 442 kts 355°
2026-04-20 22:54 20.90358 -79.13828 38026 ft 442 kts 355°
2026-04-20 22:54 20.96510 -79.13693 38028 ft 442 kts 355°
2026-04-20 22:55 21.01631 -79.13579 38026 ft 442 kts 355°
2026-04-20 22:55 21.07773 -79.13441 38034 ft 441 kts 355°
2026-04-20 22:56 21.13919 -79.13304 38036 ft 441 kts 355°
2026-04-20 22:56 21.20072 -79.12885 38036 ft 446 kts 359°
2026-04-20 22:57 21.26280 -79.12208 38036 ft 448 kts 359°
2026-04-20 22:57 21.32482 -79.11482 38036 ft 449 kts 360°
2026-04-20 22:58 21.38680 -79.10747 38036 ft 449 kts 360°
2026-04-20 22:58 21.44908 -79.10013 38039 ft 448 kts 360°
2026-04-20 22:59 21.51107 -79.09286 38045 ft 448 kts 359°
2026-04-20 22:59 21.57275 -79.08564 38045 ft 448 kts 359°
2026-04-20 23:00 21.63480 -79.07837 38046 ft 449 kts 359°
2026-04-20 23:00 21.69703 -79.07106 38045 ft 449 kts 359°
2026-04-20 23:01 21.75926 -79.06374 38045 ft 449 kts 359°
2026-04-20 23:01 21.82145 -79.05641 38045 ft 448 kts 359°
2026-04-20 23:02 21.88355 -79.04910 38054 ft 448 kts 359°
2026-04-20 23:02 21.94555 -79.04179 38072 ft 449 kts 359°
2026-04-20 23:03 21.97656 -79.03814 38300 ft 449 kts 359°
2026-04-20 23:03 22.00761 -79.03447 38592 ft 448 kts 359°
2026-04-20 23:03 22.03849 -79.03081 38893 ft 447 kts 359°
2026-04-20 23:03 22.06943 -79.02714 39139 ft 444 kts 359°
2026-04-20 23:04 22.13050 -79.01990 39056 ft 442 kts 359°
2026-04-20 23:04 22.19189 -79.01269 39056 ft 442 kts 359°
2026-04-20 23:05 22.25307 -79.00546 39054 ft 442 kts 359°
2026-04-20 23:05 22.31426 -78.99821 39055 ft 442 kts 359°
2026-04-20 23:06 22.37517 -78.99098 39054 ft 442 kts 359°
2026-04-20 23:06 22.43638 -78.98372 39055 ft 443 kts 359°
2026-04-20 23:07 22.49800 -78.97641 39063 ft 445 kts 359°
2026-04-20 23:07 22.55946 -78.96910 39063 ft 445 kts 359°
2026-04-20 23:08 22.62109 -78.96175 39063 ft 445 kts 359°
2026-04-20 23:08 22.68241 -78.95443 39063 ft 445 kts 359°
2026-04-20 23:09 22.74401 -78.94709 39063 ft 445 kts 359°
2026-04-20 23:09 22.80551 -78.93974 39063 ft 445 kts 358°
2026-04-20 23:10 22.86706 -78.93239 39064 ft 445 kts 358°
2026-04-20 23:10 22.92869 -78.92503 39063 ft 445 kts 358°
2026-04-20 23:11 22.99027 -78.91767 39063 ft 444 kts 358°
2026-04-20 23:11 23.05165 -78.91033 39065 ft 444 kts 358°
2026-04-20 23:12 23.11324 -78.90294 39071 ft 445 kts 358°
2026-04-20 23:12 23.17451 -78.89559 39072 ft 445 kts 358°
2026-04-20 23:13 23.23655 -78.88812 39073 ft 445 kts 358°
2026-04-20 23:13 23.29822 -78.88069 39072 ft 445 kts 358°
2026-04-20 23:14 23.35933 -78.87334 39072 ft 445 kts 358°
2026-04-20 23:14 23.42093 -78.86593 39072 ft 445 kts 358°
2026-04-20 23:15 23.48246 -78.85852 39073 ft 445 kts 358°
2026-04-20 23:15 23.54399 -78.85109 39073 ft 445 kts 358°
2026-04-20 23:16 23.60557 -78.84365 39073 ft 445 kts 358°
2026-04-20 23:16 23.66705 -78.83622 39072 ft 445 kts 358°
2026-04-20 23:17 23.72858 -78.82878 39076 ft 445 kts 358°
2026-04-20 23:17 23.79019 -78.82131 39073 ft 445 kts 358°
2026-04-20 23:18 23.85166 -78.81385 39073 ft 444 kts 358°
2026-04-20 23:18 23.91310 -78.80641 39073 ft 444 kts 358°
2026-04-20 23:19 23.97430 -78.79898 39076 ft 444 kts 358°
2026-04-20 23:19 24.03565 -78.79341 39083 ft 441 kts 354°
2026-04-20 23:20 24.09686 -78.79124 39082 ft 439 kts 352°
2026-04-20 23:20 24.15797 -78.78958 39082 ft 440 kts 353°
2026-04-20 23:21 24.21907 -78.78759 39082 ft 440 kts 353°
2026-04-20 23:21 24.28052 -78.78532 39082 ft 440 kts 353°
2026-04-20 23:22 24.34180 -78.78297 39082 ft 441 kts 353°
2026-04-20 23:22 24.40276 -78.78065 39082 ft 440 kts 353°
2026-04-20 23:23 24.46397 -78.77833 39082 ft 440 kts 353°
2026-04-20 23:23 24.52523 -78.77601 39082 ft 440 kts 353°
2026-04-20 23:24 24.58647 -78.77370 39082 ft 440 kts 353°
2026-04-20 23:24 24.64770 -78.77139 39082 ft 440 kts 353°
2026-04-20 23:25 24.70890 -78.76907 39083 ft 440 kts 353°
2026-04-20 23:25 24.77007 -78.76674 39092 ft 440 kts 353°
2026-04-20 23:26 24.83139 -78.76440 39091 ft 441 kts 353°
2026-04-20 23:26 24.89270 -78.76207 39100 ft 441 kts 353°
2026-04-20 23:27 24.95408 -78.75973 39101 ft 441 kts 353°
2026-04-20 23:27 25.01543 -78.75739 39100 ft 441 kts 353°
2026-04-20 23:28 25.07671 -78.75505 39101 ft 440 kts 353°
2026-04-20 23:28 25.13793 -78.75271 39101 ft 440 kts 353°
2026-04-20 23:29 25.19911 -78.75036 39100 ft 440 kts 352°
2026-04-20 23:29 25.26009 -78.74803 39109 ft 440 kts 352°
2026-04-20 23:30 25.32139 -78.74569 39109 ft 441 kts 352°
2026-04-20 23:30 25.38274 -78.74335 39110 ft 441 kts 352°
2026-04-20 23:31 25.44447 -78.74097 39110 ft 441 kts 352°
2026-04-20 23:31 25.50585 -78.73859 39110 ft 441 kts 352°
2026-04-20 23:32 25.56680 -78.73624 39119 ft 441 kts 352°
2026-04-20 23:32 25.62805 -78.73388 39119 ft 441 kts 352°
2026-04-20 23:33 25.68942 -78.73152 39119 ft 441 kts 352°
2026-04-20 23:33 25.75063 -78.72915 39119 ft 440 kts 352°
2026-04-20 23:34 25.81200 -78.72678 39119 ft 440 kts 352°
2026-04-20 23:34 25.87324 -78.72440 39127 ft 440 kts 352°
2026-04-20 23:35 25.96511 -78.72085 39127 ft 440 kts 352°
2026-04-20 23:36 26.01615 -78.71887 39127 ft 440 kts 352°
2026-04-20 23:36 26.07738 -78.71649 39139 ft 440 kts 352°
2026-04-20 23:37 26.13850 -78.71412 39142 ft 440 kts 352°
2026-04-20 23:37 26.19957 -78.71174 39140 ft 440 kts 352°
2026-04-20 23:38 26.26096 -78.70935 39141 ft 440 kts 352°
2026-04-20 23:38 26.32212 -78.70697 39141 ft 440 kts 352°
2026-04-20 23:39 26.38291 -78.70460 39135 ft 440 kts 352°
2026-04-20 23:39 26.44432 -78.70220 39135 ft 440 kts 352°
2026-04-20 23:40 26.50514 -78.69982 39135 ft 440 kts 352°
2026-04-20 23:40 26.56695 -78.69560 39138 ft 446 kts 356°
2026-04-20 23:41 26.62861 -78.68715 39140 ft 447 kts 357°
2026-04-20 23:41 26.69037 -78.67785 39137 ft 447 kts 357°
2026-04-20 23:42 26.75204 -78.66842 39142 ft 446 kts 357°
2026-04-20 23:42 26.81316 -78.65913 39134 ft 446 kts 357°
2026-04-20 23:43 26.87510 -78.64979 39136 ft 446 kts 357°
2026-04-20 23:43 26.93636 -78.64058 39138 ft 446 kts 357°
2026-04-20 23:44 26.99801 -78.63130 39139 ft 447 kts 357°
2026-04-20 23:44 27.05957 -78.62199 39140 ft 446 kts 357°
2026-04-20 23:45 27.12116 -78.61265 39138 ft 446 kts 357°
2026-04-20 23:45 27.18275 -78.60331 39137 ft 445 kts 357°
2026-04-20 23:46 27.24414 -78.59401 39141 ft 445 kts 357°
2026-04-20 23:46 27.30553 -78.58471 39147 ft 445 kts 357°
2026-04-20 23:47 27.36684 -78.57540 39145 ft 445 kts 357°
2026-04-20 23:47 27.42793 -78.56610 39145 ft 445 kts 356°
2026-04-20 23:48 27.48929 -78.55676 39145 ft 445 kts 356°
2026-04-20 23:48 27.55050 -78.54742 39144 ft 444 kts 356°
2026-04-20 23:49 27.61171 -78.53807 39148 ft 443 kts 356°
2026-04-20 23:49 27.67281 -78.52874 39146 ft 443 kts 356°
2026-04-20 23:50 27.73393 -78.51940 39145 ft 443 kts 356°
2026-04-20 23:50 27.79514 -78.51002 39144 ft 443 kts 356°
2026-04-20 23:51 27.85631 -78.50062 39149 ft 443 kts 356°
2026-04-20 23:51 27.91737 -78.49125 39147 ft 443 kts 356°
2026-04-20 23:52 27.97847 -78.48186 39144 ft 443 kts 356°
2026-04-20 23:52 28.03970 -78.47244 39144 ft 443 kts 356°
2026-04-20 23:53 28.10089 -78.46302 39148 ft 443 kts 356°
2026-04-20 23:53 28.16154 -78.45368 39145 ft 443 kts 356°
2026-04-20 23:54 28.21267 -78.44579 39145 ft 443 kts 356°
2026-04-20 23:54 28.28367 -78.43481 39146 ft 443 kts 356°
2026-04-20 23:55 28.34476 -78.42536 39148 ft 443 kts 356°
2026-04-20 23:55 28.40579 -78.41591 39147 ft 443 kts 356°
2026-04-20 23:56 28.46666 -78.40647 39144 ft 443 kts 356°
2026-04-20 23:56 28.52773 -78.39697 39162 ft 442 kts 356°
2026-04-20 23:57 28.58877 -78.38750 39165 ft 443 kts 356°
2026-04-20 23:57 28.64977 -78.37800 39165 ft 442 kts 356°
2026-04-20 23:58 28.71087 -78.36848 39174 ft 442 kts 356°
2026-04-20 23:58 28.77180 -78.35896 39182 ft 442 kts 356°